Time,TemperatureF,DewpointF,PressureIn,WindDirection,WindDirectionDegrees,WindSpeedMPH,WindSpeedGustMPH,Humidity,HourlyPrecipIn,Conditions,Clouds,dailyrainin,SoftwareType,DateUTC
2013-08-12 00:04:00,46.0,45.2,30.17,WSW,257,0.0,0.0,97,0.00,,,0.00,Weather View 32 v70,2013-08-12 06:04:00,
2013-08-12 00:09:00,46.0,45.2,30.17,WSW,257,0.0,0.0,97,0.00,,,0.00,Weather View 32 v70,2013-08-12 06:09:00,
2013-08-12 00:14:00,46.0,45.5,30.17,WSW,257,0.0,0.0,98,0.00,,,0.00,Weather View 32 v70,2013-08-12 06:14:00,
2013-08-12 00:18:00,46.0,45.5,30.17,WSW,257,0.0,0.0,98,0.00,,,0.00,Weather View 32 v70,2013-08-12 06:18:00,
2013-08-12 00:23:00,45.9,45.3,30.17,WSW,257,0.0,0.0,98,0.00,,,0.00,Weather View 32 v70,2013-08-12 06:23:00,
2013-08-12 00:28:00,45.7,45.1,30.17,WSW,257,0.0,0.0,98,0.00,,,0.00,Weather View 32 v70,2013-08-12 06:28:00,
2013-08-12 00:34:00,45.5,45.0,30.17,WSW,257,0.0,0.0,98,0.00,,,0.00,Weather View 32 v70,2013-08-12 06:34:00,
2013-08-12 00:39:00,45.5,45.0,30.17,WSW,257,0.0,0.0,98,0.00,,,0.00,Weather View 32 v70,2013-08-12 06:39:00,
2013-08-12 00:44:00,45.7,45.1,30.17,WSW,257,0.0,0.0,98,0.00,,,0.00,Weather View 32 v70,2013-08-12 06:44:00,
2013-08-12 00:49:00,45.5,45.0,30.17,WSW,257,0.0,0.0,98,0.00,,,0.00,Weather View 32 v70,2013-08-12 06:49:00,
2013-08-12 00:54:00,45.3,44.8,30.17,WSW,257,0.0,0.0,98,0.00,,,0.00,Weather View 32 v70,2013-08-12 06:54:00,
2013-08-12 00:59:00,45.3,44.8,30.17,WSW,257,0.0,0.0,98,0.00,,,0.00,Weather View 32 v70,2013-08-12 06:59:00,
2013-08-12 01:04:00,45.1,44.6,30.17,WSW,257,0.0,0.0,98,0.00,,,0.00,Weather View 32 v70,2013-08-12 07:04:00,
2013-08-12 01:09:00,45.1,44.6,30.17,WSW,257,0.0,0.0,98,0.00,,,0.00,Weather View 32 v70,2013-08-12 07:09:00,
2013-08-12 01:14:00,45.1,44.6,30.17,WSW,257,0.0,0.0,98,0.00,,,0.00,Weather View 32 v70,2013-08-12 07:14:00,
2013-08-12 01:19:00,45.0,44.4,30.17,WSW,257,0.0,0.0,98,0.00,,,0.00,Weather View 32 v70,2013-08-12 07:19:00,
2013-08-12 01:23:00,45.0,44.4,30.17,WSW,257,0.0,0.0,98,0.00,,,0.00,Weather View 32 v70,2013-08-12 07:23:00,
2013-08-12 01:24:00,44.8,44.2,30.17,WSW,257,0.0,0.0,98,0.00,,,0.00,Weather View 32 v70,2013-08-12 07:24:00,
2013-08-12 01:29:00,44.8,44.2,30.17,WSW,257,0.0,0.0,98,0.00,,,0.00,Weather View 32 v70,2013-08-12 07:29:00,
2013-08-12 01:34:00,44.6,44.1,30.17,WSW,257,0.0,0.0,98,0.00,,,0.00,Weather View 32 v70,2013-08-12 07:34:00,
2013-08-12 01:39:00,44.4,43.9,30.17,WSW,257,0.0,0.0,98,0.00,,,0.00,Weather View 32 v70,2013-08-12 07:39:00,
2013-08-12 01:44:00,44.2,43.7,30.17,WSW,257,0.0,0.0,98,0.00,,,0.00,Weather View 32 v70,2013-08-12 07:44:00,
2013-08-12 01:49:00,44.2,43.7,30.14,WSW,257,0.0,0.0,98,0.00,,,0.00,Weather View 32 v70,2013-08-12 07:49:00,
2013-08-12 01:54:00,44.1,43.5,30.14,WSW,257,0.0,0.0,98,0.00,,,0.00,Weather View 32 v70,2013-08-12 07:54:00,
2013-08-12 01:58:00,43.9,43.4,30.14,WSW,257,0.0,0.0,98,0.00,,,0.00,Weather View 32 v70,2013-08-12 07:58:00,
2013-08-12 02:03:00,44.1,43.5,30.14,WSW,257,0.0,0.0,98,0.00,,,0.00,Weather View 32 v70,2013-08-12 08:03:00,
2013-08-12 02:08:00,44.1,43.5,30.14,WSW,257,0.0,0.0,98,0.00,,,0.00,Weather View 32 v70,2013-08-12 08:08:00,
2013-08-12 02:13:00,44.2,43.7,30.14,WSW,257,0.0,0.0,98,0.00,,,0.00,Weather View 32 v70,2013-08-12 08:13:00,
2013-08-12 02:18:00,44.2,43.7,30.14,WSW,257,0.0,0.0,98,0.00,,,0.00,Weather View 32 v70,2013-08-12 08:18:00,
2013-08-12 02:23:00,44.4,43.9,30.14,WSW,257,0.0,0.0,98,0.00,,,0.00,Weather View 32 v70,2013-08-12 08:23:00,
2013-08-12 02:28:00,44.4,43.9,30.14,WSW,257,0.0,0.0,98,0.00,,,0.00,Weather View 32 v70,2013-08-12 08:28:00,
2013-08-12 02:33:00,44.6,44.1,30.14,WSW,257,0.0,0.0,98,0.00,,,0.00,Weather View 32 v70,2013-08-12 08:33:00,
2013-08-12 02:38:00,44.4,43.9,30.14,WSW,257,0.0,0.0,98,0.00,,,0.00,Weather View 32 v70,2013-08-12 08:38:00,
2013-08-12 02:43:00,44.4,43.9,30.14,WSW,257,0.0,0.0,98,0.00,,,0.00,Weather View 32 v70,2013-08-12 08:43:00,
2013-08-12 02:48:00,44.4,43.9,30.14,WSW,257,0.0,0.0,98,0.00,,,0.00,Weather View 32 v70,2013-08-12 08:48:00,
2013-08-12 02:53:00,44.4,43.9,30.14,WSW,257,0.0,0.0,98,0.00,,,0.00,Weather View 32 v70,2013-08-12 08:53:00,
2013-08-12 02:58:00,44.4,43.9,30.14,WSW,257,0.0,0.0,98,0.00,,,0.00,Weather View 32 v70,2013-08-12 08:58:00,
2013-08-12 03:03:00,44.6,44.1,30.14,WSW,257,0.0,0.0,98,0.00,,,0.00,Weather View 32 v70,2013-08-12 09:03:00,
2013-08-12 03:08:00,44.4,43.9,30.14,WSW,257,0.0,0.0,98,0.00,,,0.00,Weather View 32 v70,2013-08-12 09:08:00,
2013-08-12 03:13:00,44.2,43.7,30.14,WSW,257,0.0,0.0,98,0.00,,,0.00,Weather View 32 v70,2013-08-12 09:13:00,
2013-08-12 03:18:00,44.1,43.5,30.14,WSW,257,0.0,0.0,98,0.00,,,0.00,Weather View 32 v70,2013-08-12 09:18:00,
2013-08-12 03:23:00,43.9,43.4,30.14,WSW,257,0.0,0.0,98,0.00,,,0.00,Weather View 32 v70,2013-08-12 09:23:00,
2013-08-12 03:28:00,44.1,43.5,30.14,WSW,257,0.0,0.0,98,0.00,,,0.00,Weather View 32 v70,2013-08-12 09:28:00,
2013-08-12 03:33:00,44.1,43.5,30.14,WSW,257,0.0,0.0,98,0.00,,,0.00,Weather View 32 v70,2013-08-12 09:33:00,
2013-08-12 03:39:00,43.9,43.4,30.14,WSW,257,0.0,0.0,98,0.00,,,0.00,Weather View 32 v70,2013-08-12 09:39:00,
2013-08-12 03:44:00,43.9,43.4,30.14,WSW,257,0.0,0.0,98,0.00,,,0.00,Weather View 32 v70,2013-08-12 09:44:00,
2013-08-12 03:49:00,43.9,43.4,30.14,WSW,257,0.0,0.0,98,0.00,,,0.00,Weather View 32 v70,2013-08-12 09:49:00,
2013-08-12 03:54:00,43.9,43.4,30.14,WSW,257,0.0,0.0,98,0.00,,,0.00,Weather View 32 v70,2013-08-12 09:54:00,
2013-08-12 03:59:00,43.7,43.2,30.14,WSW,257,0.0,0.0,98,0.00,,,0.00,Weather View 32 v70,2013-08-12 09:59:00,
2013-08-12 04:04:00,43.5,43.0,30.14,WSW,257,0.0,0.0,98,0.00,,,0.00,Weather View 32 v70,2013-08-12 10:04:00,
2013-08-12 04:09:00,43.5,43.0,30.14,WSW,257,0.0,0.0,98,0.00,,,0.00,Weather View 32 v70,2013-08-12 10:09:00,
2013-08-12 04:14:00,43.5,43.0,30.14,WSW,257,0.0,0.0,98,0.00,,,0.00,Weather View 32 v70,2013-08-12 10:14:00,
2013-08-12 04:19:00,43.5,43.0,30.14,WSW,257,0.0,0.0,98,0.00,,,0.00,Weather View 32 v70,2013-08-12 10:19:00,
2013-08-12 04:24:00,43.2,42.6,30.14,WSW,257,0.0,0.0,98,0.00,,,0.00,Weather View 32 v70,2013-08-12 10:24:00,
2013-08-12 04:29:00,43.0,42.5,30.14,WSW,257,0.0,0.0,98,0.00,,,0.00,Weather View 32 v70,2013-08-12 10:29:00,
2013-08-12 04:34:00,43.0,42.5,30.14,WSW,257,0.0,0.0,98,0.00,,,0.00,Weather View 32 v70,2013-08-12 10:34:00,
2013-08-12 04:39:00,43.0,42.5,30.14,WSW,257,0.0,0.0,98,0.00,,,0.00,Weather View 32 v70,2013-08-12 10:39:00,
2013-08-12 04:44:00,43.0,42.5,30.14,WSW,257,0.0,0.0,98,0.00,,,0.00,Weather View 32 v70,2013-08-12 10:44:00,
2013-08-12 04:49:00,42.8,42.3,30.14,WSW,257,0.0,0.0,98,0.00,,,0.00,Weather View 32 v70,2013-08-12 10:49:00,
2013-08-12 04:54:00,42.8,42.3,30.14,WSW,257,0.0,0.0,98,0.00,,,0.00,Weather View 32 v70,2013-08-12 10:54:00,
2013-08-12 04:59:00,42.6,42.1,30.14,WSW,257,0.0,0.0,98,0.00,,,0.00,Weather View 32 v70,2013-08-12 10:59:00,
2013-08-12 05:04:00,42.4,41.9,30.14,WSW,257,0.0,0.0,98,0.00,,,0.00,Weather View 32 v70,2013-08-12 11:04:00,
2013-08-12 05:09:00,42.4,41.9,30.14,WSW,257,0.0,0.0,98,0.00,,,0.00,Weather View 32 v70,2013-08-12 11:09:00,
2013-08-12 05:14:00,42.4,41.9,30.14,WSW,257,0.0,0.0,98,0.00,,,0.00,Weather View 32 v70,2013-08-12 11:14:00,
2013-08-12 05:19:00,42.4,41.9,30.14,WSW,257,0.0,0.0,98,0.00,,,0.00,Weather View 32 v70,2013-08-12 11:19:00,
2013-08-12 05:24:00,42.4,41.9,30.14,WSW,257,0.0,0.0,98,0.00,,,0.00,Weather View 32 v70,2013-08-12 11:24:00,
2013-08-12 05:29:00,42.3,41.7,30.14,WSW,257,0.0,0.0,98,0.00,,,0.00,Weather View 32 v70,2013-08-12 11:29:00,
2013-08-12 05:34:00,42.1,41.6,30.14,WSW,257,0.0,0.0,98,0.00,,,0.00,Weather View 32 v70,2013-08-12 11:34:00,
2013-08-12 05:39:00,41.7,41.2,30.14,WSW,257,0.0,0.0,98,0.00,,,0.00,Weather View 32 v70,2013-08-12 11:39:00,
2013-08-12 05:44:00,41.7,41.2,30.14,WSW,257,0.0,0.0,98,0.00,,,0.00,Weather View 32 v70,2013-08-12 11:44:00,
2013-08-12 05:49:00,42.1,41.6,30.14,WSW,257,0.0,0.0,98,0.00,,,0.00,Weather View 32 v70,2013-08-12 11:49:00,
2013-08-12 05:54:00,42.1,41.6,30.14,WSW,257,0.0,0.0,98,0.00,,,0.00,Weather View 32 v70,2013-08-12 11:54:00,
2013-08-12 05:59:00,42.3,41.7,30.14,WSW,257,0.0,0.0,98,0.00,,,0.00,Weather View 32 v70,2013-08-12 11:59:00,
2013-08-12 06:04:00,42.3,41.7,30.14,WSW,257,0.0,0.0,98,0.00,,,0.00,Weather View 32 v70,2013-08-12 12:04:00,
2013-08-12 06:09:00,42.3,41.7,30.14,WSW,257,0.0,0.0,98,0.00,,,0.00,Weather View 32 v70,2013-08-12 12:09:00,
2013-08-12 06:14:00,42.1,41.6,30.14,WSW,257,0.0,0.0,98,0.00,,,0.00,Weather View 32 v70,2013-08-12 12:14:00,
2013-08-12 06:19:00,42.3,41.7,30.14,WSW,257,0.0,0.0,98,0.00,,,0.00,Weather View 32 v70,2013-08-12 12:19:00,
2013-08-12 06:23:00,42.3,41.7,30.14,WSW,257,0.0,0.0,98,0.00,,,0.00,Weather View 32 v70,2013-08-12 12:23:00,
2013-08-12 06:28:00,42.4,41.9,30.14,North,0,0.0,0.0,98,0.00,,,0.00,Weather View 32 v70,2013-08-12 12:28:00,
2013-08-12 06:34:00,42.8,42.3,30.14,WSW,257,0.0,0.0,98,0.00,,,0.00,Weather View 32 v70,2013-08-12 12:34:00,
2013-08-12 06:39:00,43.0,42.5,30.14,WSW,257,0.0,0.0,98,0.00,,,0.00,Weather View 32 v70,2013-08-12 12:39:00,
2013-08-12 06:44:00,43.3,42.8,30.14,WSW,257,0.0,0.0,98,0.00,,,0.00,Weather View 32 v70,2013-08-12 12:44:00,
2013-08-12 06:49:00,43.5,43.0,30.14,SW,229,0.0,0.0,98,0.00,,,0.00,Weather View 32 v70,2013-08-12 12:49:00,
2013-08-12 06:54:00,43.7,43.2,30.14,SW,229,0.0,0.0,98,0.00,,,0.00,Weather View 32 v70,2013-08-12 12:54:00,
2013-08-12 06:59:00,43.7,43.2,30.14,North,0,0.0,0.0,98,0.00,,,0.00,Weather View 32 v70,2013-08-12 12:59:00,
2013-08-12 07:04:00,43.9,43.4,30.14,SW,229,0.0,0.0,98,0.00,,,0.00,Weather View 32 v70,2013-08-12 13:04:00,
2013-08-12 07:09:00,44.1,43.5,30.14,SW,229,0.0,0.0,98,0.00,,,0.00,Weather View 32 v70,2013-08-12 13:09:00,
2013-08-12 07:14:00,44.2,43.7,30.14,SW,228,0.0,0.0,98,0.00,,,0.00,Weather View 32 v70,2013-08-12 13:14:00,
2013-08-12 07:19:00,44.4,43.9,30.14,SW,229,0.0,0.0,98,0.00,,,0.00,Weather View 32 v70,2013-08-12 13:19:00,
2013-08-12 07:24:00,44.6,44.1,30.14,SW,229,0.0,0.0,98,0.00,,,0.00,Weather View 32 v70,2013-08-12 13:24:00,
2013-08-12 07:29:00,44.8,44.2,30.14,SW,229,0.0,0.0,98,0.00,,,0.00,Weather View 32 v70,2013-08-12 13:29:00,
2013-08-12 07:33:00,45.0,44.4,30.14,SW,229,0.0,0.0,98,0.00,,,0.00,Weather View 32 v70,2013-08-12 13:33:00,
2013-08-12 07:38:00,45.1,44.6,30.14,SW,229,0.0,0.0,98,0.00,,,0.00,Weather View 32 v70,2013-08-12 13:38:00,
2013-08-12 07:43:00,45.3,44.8,30.14,SW,228,0.0,0.0,98,0.00,,,0.00,Weather View 32 v70,2013-08-12 13:43:00,
2013-08-12 07:48:00,45.5,45.0,30.14,SW,229,0.0,0.0,98,0.00,,,0.00,Weather View 32 v70,2013-08-12 13:48:00,
2013-08-12 07:53:00,45.5,45.0,30.14,SW,229,0.0,0.0,98,0.00,,,0.00,Weather View 32 v70,2013-08-12 13:53:00,
2013-08-12 07:58:00,46.2,45.7,30.14,SW,229,0.0,0.0,98,0.00,,,0.00,Weather View 32 v70,2013-08-12 13:58:00,
2013-08-12 08:03:00,47.1,46.6,30.14,SW,229,0.0,0.0,98,0.00,,,0.00,Weather View 32 v70,2013-08-12 14:03:00,
2013-08-12 08:08:00,47.7,47.1,30.14,SW,229,0.0,0.0,98,0.00,,,0.00,Weather View 32 v70,2013-08-12 14:08:00,
2013-08-12 08:13:00,48.2,47.7,30.14,SW,229,0.0,0.0,98,0.00,,,0.00,Weather View 32 v70,2013-08-12 14:13:00,
2013-08-12 08:18:00,48.9,48.4,30.14,SW,229,0.0,0.0,98,0.00,,,0.00,Weather View 32 v70,2013-08-12 14:18:00,
2013-08-12 08:23:00,49.5,48.9,30.14,SW,229,0.0,0.0,98,0.00,,,0.00,Weather View 32 v70,2013-08-12 14:23:00,
2013-08-12 08:28:00,50.2,49.6,30.14,SW,229,0.0,0.0,98,0.00,,,0.00,Weather View 32 v70,2013-08-12 14:28:00,
2013-08-12 08:33:00,50.5,50.0,30.14,SW,229,0.0,0.0,98,0.00,,,0.00,Weather View 32 v70,2013-08-12 14:33:00,
2013-08-12 08:38:00,51.3,50.7,30.14,SW,217,0.0,0.0,98,0.00,,,0.00,Weather View 32 v70,2013-08-12 14:38:00,
2013-08-12 08:43:00,52.0,51.2,30.14,SW,217,0.0,0.0,97,0.00,,,0.00,Weather View 32 v70,2013-08-12 14:43:00,
2013-08-12 08:48:00,52.7,50.7,30.14,SW,217,0.0,0.0,93,0.00,,,0.00,Weather View 32 v70,2013-08-12 14:48:00,
2013-08-12 08:53:00,53.1,48.7,30.14,SW,216,0.0,0.0,85,0.00,,,0.00,Weather View 32 v70,2013-08-12 14:53:00,
2013-08-12 08:58:00,54.0,44.4,30.14,SE,143,3.0,5.0,70,0.00,,,0.00,Weather View 32 v70,2013-08-12 14:58:00,
2013-08-12 09:03:00,56.3,45.5,30.14,ESE,109,0.0,5.0,67,0.00,,,0.00,Weather View 32 v70,2013-08-12 15:03:00,
2013-08-12 09:08:00,57.6,41.5,30.14,East,95,3.0,5.0,55,0.00,,,0.00,Weather View 32 v70,2013-08-12 15:08:00,
2013-08-12 09:13:00,58.6,42.0,30.14,ESE,108,0.0,5.0,54,0.00,,,0.00,Weather View 32 v70,2013-08-12 15:13:00,
2013-08-12 09:18:00,59.2,42.5,30.14,ENE,57,0.0,5.0,54,0.00,,,0.00,Weather View 32 v70,2013-08-12 15:18:00,
2013-08-12 09:23:00,60.1,41.3,30.14,ENE,78,0.0,5.0,50,0.00,,,0.00,Weather View 32 v70,2013-08-12 15:23:00,
2013-08-12 09:28:00,61.2,42.8,30.14,East,82,3.0,5.0,51,0.00,,,0.00,Weather View 32 v70,2013-08-12 15:28:00,
2013-08-12 09:33:00,62.1,41.5,30.14,East,94,0.0,5.0,47,0.00,,,0.00,Weather View 32 v70,2013-08-12 15:33:00,
2013-08-12 09:38:00,63.0,44.5,30.14,WNW,298,3.0,6.0,51,0.00,,,0.00,Weather View 32 v70,2013-08-12 15:38:00,
2013-08-12 09:43:00,63.7,41.9,30.14,East,86,0.0,6.0,45,0.00,,,0.00,Weather View 32 v70,2013-08-12 15:43:00,
2013-08-12 09:48:00,64.8,44.0,30.14,SSE,163,0.0,6.0,47,0.00,,,0.00,Weather View 32 v70,2013-08-12 15:48:00,
2013-08-12 09:53:00,65.5,42.3,30.14,East,81,0.0,6.0,43,0.00,,,0.00,Weather View 32 v70,2013-08-12 15:53:00,
2013-08-12 09:58:00,66.2,43.6,30.14,ESE,122,0.0,6.0,44,0.00,,,0.00,Weather View 32 v70,2013-08-12 15:58:00,
2013-08-12 10:03:00,66.6,40.8,30.14,SSE,153,3.0,6.0,39,0.00,,,0.00,Weather View 32 v70,2013-08-12 16:03:00,
2013-08-12 10:08:00,66.6,40.8,30.17,East,93,0.0,6.0,39,0.00,,,0.00,Weather View 32 v70,2013-08-12 16:08:00,
2013-08-12 10:13:00,66.6,39.4,30.17,ESE,112,2.0,6.0,37,0.00,,,0.00,Weather View 32 v70,2013-08-12 16:13:00,
2013-08-12 10:18:00,66.9,41.1,30.17,North,353,0.0,6.0,39,0.00,,,0.00,Weather View 32 v70,2013-08-12 16:18:00,
2013-08-12 10:23:00,67.3,40.1,30.17,East,89,0.0,6.0,37,0.00,,,0.00,Weather View 32 v70,2013-08-12 16:23:00,
2013-08-12 10:28:00,68.4,44.9,30.17,SSE,152,0.0,6.0,43,0.00,,,0.00,Weather View 32 v70,2013-08-12 16:28:00,
2013-08-12 10:33:00,69.1,39.5,30.17,NE,52,0.0,6.0,34,0.00,,,0.00,Weather View 32 v70,2013-08-12 16:33:00,
2013-08-12 10:38:00,69.1,38.7,30.17,SE,143,0.0,6.0,33,0.00,,,0.00,Weather View 32 v70,2013-08-12 16:38:00,
2013-08-12 10:43:00,69.4,41.3,30.17,East,85,0.0,6.0,36,0.00,,,0.00,Weather View 32 v70,2013-08-12 16:43:00,
2013-08-12 10:48:00,70.2,41.9,30.17,ENE,62,0.0,6.0,36,0.00,,,0.00,Weather View 32 v70,2013-08-12 16:48:00,
2013-08-12 10:53:00,70.2,38.8,30.17,NE,44,0.0,6.0,32,0.00,,,0.00,Weather View 32 v70,2013-08-12 16:53:00,
2013-08-12 10:58:00,70.5,39.2,30.17,SSE,165,6.0,6.0,32,0.00,,,0.00,Weather View 32 v70,2013-08-12 16:58:00,
2013-08-12 11:03:00,71.1,41.2,30.17,ESE,117,0.0,6.0,34,0.00,,,0.00,Weather View 32 v70,2013-08-12 17:03:00,
2013-08-12 11:08:00,71.6,40.1,30.17,East,97,3.0,6.0,32,0.00,,,0.00,Weather View 32 v70,2013-08-12 17:08:00,
2013-08-12 11:13:00,70.7,38.5,30.17,ENE,78,3.0,9.0,31,0.00,,,0.00,Weather View 32 v70,2013-08-12 17:13:00,
2013-08-12 11:18:00,68.9,38.5,30.17,SSE,147,0.0,9.0,33,0.00,,,0.00,Weather View 32 v70,2013-08-12 17:18:00,
2013-08-12 11:23:00,68.2,37.9,30.17,ENE,69,3.0,9.0,33,0.00,,,0.00,Weather View 32 v70,2013-08-12 17:23:00,
2013-08-12 11:28:00,67.5,38.0,30.17,SSW,208,0.0,9.0,34,0.00,,,0.00,Weather View 32 v70,2013-08-12 17:28:00,
2013-08-12 11:33:00,68.2,40.1,30.17,ENE,64,0.0,9.0,36,0.00,,,0.00,Weather View 32 v70,2013-08-12 17:33:00,
2013-08-12 11:38:00,69.1,38.7,30.17,NNW,341,0.0,9.0,33,0.00,,,0.00,Weather View 32 v70,2013-08-12 17:38:00,
2013-08-12 11:43:00,70.9,41.0,30.17,SSW,205,0.0,9.0,34,0.00,,,0.00,Weather View 32 v70,2013-08-12 17:43:00,
2013-08-12 11:48:00,72.5,40.1,30.17,WSW,243,3.0,9.0,31,0.00,,,0.00,Weather View 32 v70,2013-08-12 17:48:00,
2013-08-12 12:01:00,73.6,37.5,30.14,ENE,62,0.0,9.0,27,0.00,,,0.00,Weather View 32 v70,2013-08-12 18:01:00,
2013-08-12 12:06:00,73.2,39.8,30.14,SE,128,5.0,9.0,30,0.00,,,0.00,Weather View 32 v70,2013-08-12 18:06:00,
2013-08-12 12:11:00,74.1,37.9,30.14,SSW,211,0.0,9.0,27,0.00,,,0.00,Weather View 32 v70,2013-08-12 18:11:00,
2013-08-12 12:16:00,74.3,39.9,30.14,SW,226,0.0,8.0,29,0.00,,,0.00,Weather View 32 v70,2013-08-12 18:16:00,
2013-08-12 12:21:00,74.1,41.5,30.14,NNE,31,2.0,8.0,31,0.00,,,0.00,Weather View 32 v70,2013-08-12 18:21:00,
2013-08-12 12:26:00,72.9,39.5,30.14,SSE,152,0.0,8.0,30,0.00,,,0.00,Weather View 32 v70,2013-08-12 18:26:00,
2013-08-12 12:31:00,70.7,39.3,30.14,NNW,329,0.0,8.0,32,0.00,,,0.00,Weather View 32 v70,2013-08-12 18:31:00,
2013-08-12 12:36:00,70.2,41.2,30.14,SW,231,0.0,8.0,35,0.00,,,0.00,Weather View 32 v70,2013-08-12 18:36:00,
2013-08-12 12:41:00,68.5,39.0,30.14,North,3,3.0,8.0,34,0.00,,,0.00,Weather View 32 v70,2013-08-12 18:41:00,
2013-08-12 12:46:00,67.6,39.7,30.14,SW,227,0.0,8.0,36,0.00,,,0.00,Weather View 32 v70,2013-08-12 18:46:00,
2013-08-12 13:00:00,65.8,42.7,30.14,WNW,302,0.0,8.0,43,0.00,,,0.00,Weather View 32 v70,2013-08-12 19:00:00,
2013-08-12 13:05:00,64.8,41.7,30.17,SW,234,0.0,8.0,43,0.00,,,0.00,Weather View 32 v70,2013-08-12 19:05:00,
2013-08-12 13:10:00,64.2,43.5,30.17,East,82,0.0,6.0,47,0.00,,,0.00,Weather View 32 v70,2013-08-12 19:10:00,
2013-08-12 13:15:00,63.7,44.1,30.17,NNE,32,0.0,6.0,49,0.00,,,0.00,Weather View 32 v70,2013-08-12 19:15:00,
2013-08-12 13:20:00,62.8,47.3,30.17,West,271,0.0,6.0,57,0.00,,,0.00,Weather View 32 v70,2013-08-12 19:20:00,
2013-08-12 13:25:00,61.5,49.2,30.17,West,271,0.0,6.0,64,0.00,,,0.00,Weather View 32 v70,2013-08-12 19:25:00,
2013-08-12 13:30:00,60.4,51.3,30.17,SW,222,0.0,6.0,72,0.00,,,0.00,Weather View 32 v70,2013-08-12 19:30:00,
2013-08-12 13:35:00,59.5,52.3,30.17,SW,226,0.0,6.0,77,0.00,,,0.00,Weather View 32 v70,2013-08-12 19:35:00,
2013-08-12 13:40:00,58.8,52.3,30.17,SE,143,4.0,11.0,79,0.00,,,0.00,Weather View 32 v70,2013-08-12 19:40:00,
2013-08-12 13:45:00,57.9,50.0,30.17,South,186,0.0,11.0,75,0.00,,,0.00,Weather View 32 v70,2013-08-12 19:45:00,
2013-08-12 13:50:00,57.2,48.2,30.17,SE,135,0.0,11.0,72,0.00,,,0.00,Weather View 32 v70,2013-08-12 19:50:00,
2013-08-12 13:55:00,56.3,47.4,30.17,SSE,155,0.0,11.0,72,0.00,,,0.00,Weather View 32 v70,2013-08-12 19:55:00,
2013-08-12 14:00:00,56.1,46.4,30.17,West,261,0.0,11.0,70,0.00,,,0.00,Weather View 32 v70,2013-08-12 20:00:00,
2013-08-12 14:05:00,56.7,42.5,30.17,ESE,119,6.0,11.0,59,0.00,,,0.00,Weather View 32 v70,2013-08-12 20:05:00,
2013-08-12 14:10:00,59.7,43.5,30.17,NW,320,0.0,11.0,55,0.00,,,0.00,Weather View 32 v70,2013-08-12 20:10:00,
2013-08-12 14:15:00,63.1,42.0,30.17,SW,214,6.0,11.0,46,0.00,,,0.00,Weather View 32 v70,2013-08-12 20:15:00,
2013-08-12 14:20:00,64.8,37.1,30.17,WSW,251,3.0,11.0,36,0.00,,,0.00,Weather View 32 v70,2013-08-12 20:20:00,
2013-08-12 14:25:00,65.7,37.2,30.17,SW,221,0.0,11.0,35,0.00,,,0.00,Weather View 32 v70,2013-08-12 20:25:00,
2013-08-12 14:30:00,66.9,37.6,30.17,North,357,0.0,11.0,34,0.00,,,0.00,Weather View 32 v70,2013-08-12 20:30:00,
2013-08-12 14:35:00,68.4,38.1,30.17,NNW,337,3.0,11.0,33,0.00,,,0.00,Weather View 32 v70,2013-08-12 20:35:00,
2013-08-12 14:40:00,69.3,40.4,30.17,SSW,205,0.0,11.0,35,0.00,,,0.00,Weather View 32 v70,2013-08-12 20:40:00,
2013-08-12 14:45:00,69.6,38.4,30.17,South,171,0.0,11.0,32,0.00,,,0.00,Weather View 32 v70,2013-08-12 20:45:00,
2013-08-12 14:50:00,71.1,39.6,30.17,SE,143,0.0,11.0,32,0.00,,,0.00,Weather View 32 v70,2013-08-12 20:50:00,
2013-08-12 14:55:00,71.4,37.4,30.17,NE,53,0.0,11.0,29,0.00,,,0.00,Weather View 32 v70,2013-08-12 20:55:00,
2013-08-12 15:00:00,70.7,38.5,30.17,ENE,62,3.0,11.0,31,0.00,,,0.00,Weather View 32 v70,2013-08-12 21:00:00,
2013-08-12 15:05:00,70.7,39.3,30.14,SE,129,4.0,11.0,32,0.00,,,0.00,Weather View 32 v70,2013-08-12 21:05:00,
2013-08-12 15:10:00,68.9,38.5,30.14,NE,48,0.0,11.0,33,0.00,,,0.00,Weather View 32 v70,2013-08-12 21:10:00,
2013-08-12 15:15:00,70.5,42.2,30.14,ENE,58,4.0,11.0,36,0.00,,,0.00,Weather View 32 v70,2013-08-12 21:15:00,
2013-08-12 15:20:00,70.9,39.5,30.14,SE,134,0.0,9.0,32,0.00,,,0.00,Weather View 32 v70,2013-08-12 21:20:00,
2013-08-12 15:25:00,70.2,38.8,30.14,East,84,5.0,8.0,32,0.00,,,0.00,Weather View 32 v70,2013-08-12 21:25:00,
2013-08-12 15:30:00,70.3,39.0,30.14,SSE,159,0.0,8.0,32,0.00,,,0.00,Weather View 32 v70,2013-08-12 21:30:00,
2013-08-12 15:35:00,70.5,40.0,30.14,SSE,150,0.0,8.0,33,0.00,,,0.00,Weather View 32 v70,2013-08-12 21:35:00,
2013-08-12 15:40:00,71.2,40.6,30.14,East,99,0.0,8.0,33,0.00,,,0.00,Weather View 32 v70,2013-08-12 21:40:00,
2013-08-12 15:45:00,70.3,37.4,30.14,NE,49,0.0,8.0,30,0.00,,,0.00,Weather View 32 v70,2013-08-12 21:45:00,
2013-08-12 15:50:00,70.5,36.6,30.14,East,90,3.0,8.0,29,0.00,,,0.00,Weather View 32 v70,2013-08-12 21:50:00,
2013-08-12 15:55:00,70.7,36.8,30.14,ENE,70,0.0,8.0,29,0.00,,,0.00,Weather View 32 v70,2013-08-12 21:55:00,
2013-08-12 16:00:00,71.2,37.3,30.14,East,79,0.0,8.0,29,0.00,,,0.00,Weather View 32 v70,2013-08-12 22:00:00,
2013-08-12 16:05:00,70.5,35.8,30.14,East,89,3.0,8.0,28,0.00,,,0.00,Weather View 32 v70,2013-08-12 22:05:00,
2013-08-12 16:10:00,69.6,38.4,30.14,ESE,123,0.0,8.0,32,0.00,,,0.00,Weather View 32 v70,2013-08-12 22:10:00,
2013-08-12 16:15:00,69.1,37.9,30.14,SE,143,0.0,8.0,32,0.00,,,0.00,Weather View 32 v70,2013-08-12 22:15:00,
2013-08-12 16:20:00,70.2,38.0,30.14,NE,48,0.0,8.0,31,0.00,,,0.00,Weather View 32 v70,2013-08-12 22:20:00,
2013-08-12 16:25:00,71.1,35.3,30.14,East,88,0.0,8.0,27,0.00,,,0.00,Weather View 32 v70,2013-08-12 22:25:00,
2013-08-12 16:30:00,70.7,36.8,30.14,NE,49,5.0,8.0,29,0.00,,,0.00,Weather View 32 v70,2013-08-12 22:30:00,
2013-08-12 16:35:00,70.7,35.0,30.14,WSW,246,0.0,8.0,27,0.00,,,0.00,Weather View 32 v70,2013-08-12 22:35:00,
2013-08-12 16:40:00,70.2,38.8,30.14,SE,136,0.0,8.0,32,0.00,,,0.00,Weather View 32 v70,2013-08-12 22:40:00,
2013-08-12 16:45:00,70.2,34.5,30.14,ESE,115,5.0,8.0,27,0.00,,,0.00,Weather View 32 v70,2013-08-12 22:45:00,
2013-08-12 16:50:00,69.4,34.8,30.14,East,94,4.0,8.0,28,0.00,,,0.00,Weather View 32 v70,2013-08-12 22:50:00,
2013-08-12 16:55:00,68.7,35.1,30.14,SE,138,2.0,8.0,29,0.00,,,0.00,Weather View 32 v70,2013-08-12 22:55:00,
2013-08-12 17:00:00,68.7,34.2,30.14,SW,234,0.0,8.0,28,0.00,,,0.00,Weather View 32 v70,2013-08-12 23:00:00,
2013-08-12 17:05:00,68.7,35.1,30.11,ENE,74,3.0,6.0,29,0.00,,,0.00,Weather View 32 v70,2013-08-12 23:05:00,
2013-08-12 17:10:00,68.9,34.4,30.11,NE,55,0.0,6.0,28,0.00,,,0.00,Weather View 32 v70,2013-08-12 23:10:00,
2013-08-12 17:15:00,68.7,34.2,30.11,ENE,75,4.0,6.0,28,0.00,,,0.00,Weather View 32 v70,2013-08-12 23:15:00,
2013-08-12 17:20:00,68.7,34.2,30.11,SE,140,0.0,6.0,28,0.00,,,0.00,Weather View 32 v70,2013-08-12 23:20:00,
2013-08-12 17:25:00,68.5,34.9,30.11,SW,231,0.0,7.0,29,0.00,,,0.00,Weather View 32 v70,2013-08-12 23:25:00,
2013-08-12 17:30:00,67.6,35.8,30.11,ESE,113,4.0,7.0,31,0.00,,,0.00,Weather View 32 v70,2013-08-12 23:30:00,
2013-08-12 17:35:00,66.4,35.6,30.14,ENE,57,5.0,7.0,32,0.00,,,0.00,Weather View 32 v70,2013-08-12 23:35:00,
2013-08-12 17:40:00,65.7,36.5,30.14,SSE,154,0.0,7.0,34,0.00,,,0.00,Weather View 32 v70,2013-08-12 23:40:00,
2013-08-12 17:45:00,64.9,36.6,30.14,North,0,0.0,7.0,35,0.00,,,0.00,Weather View 32 v70,2013-08-12 23:45:00,
2013-08-12 17:50:00,64.6,37.0,30.14,North,0,0.0,7.0,36,0.00,,,0.00,Weather View 32 v70,2013-08-12 23:50:00,
2013-08-12 17:55:00,64.4,36.1,30.14,SSE,156,3.0,7.0,35,0.00,,,0.00,Weather View 32 v70,2013-08-12 23:55:00,
2013-08-12 18:00:00,64.6,34.8,30.14,ENE,78,4.0,7.0,33,0.00,,,0.00,Weather View 32 v70,2013-08-13 00:00:00,
2013-08-12 18:05:00,64.4,35.4,30.14,ESE,113,6.0,7.0,34,0.00,,,0.00,Weather View 32 v70,2013-08-13 00:05:00,
2013-08-12 18:10:00,64.0,36.5,30.14,SW,233,0.0,8.0,36,0.00,,,0.00,Weather View 32 v70,2013-08-13 00:10:00,
2013-08-12 18:15:00,63.9,37.7,30.14,NW,308,0.0,8.0,38,0.00,,,0.00,Weather View 32 v70,2013-08-13 00:15:00,
2013-08-12 18:20:00,63.7,37.5,30.14,ENE,60,4.0,8.0,38,0.00,,,0.00,Weather View 32 v70,2013-08-13 00:20:00,
2013-08-12 18:25:00,63.1,37.7,30.14,ENE,73,3.0,8.0,39,0.00,,,0.00,Weather View 32 v70,2013-08-13 00:25:00,
2013-08-12 18:30:00,62.4,38.4,30.14,ENE,73,0.0,8.0,41,0.00,,,0.00,Weather View 32 v70,2013-08-13 00:30:00,
2013-08-12 18:35:00,61.9,39.1,30.14,SE,127,0.0,8.0,43,0.00,,,0.00,Weather View 32 v70,2013-08-13 00:35:00,
2013-08-12 18:40:00,61.0,38.9,30.14,WSW,240,0.0,8.0,44,0.00,,,0.00,Weather View 32 v70,2013-08-13 00:40:00,
2013-08-12 18:45:00,60.4,38.9,30.14,SSE,164,0.0,8.0,45,0.00,,,0.00,Weather View 32 v70,2013-08-13 00:45:00,
2013-08-12 18:50:00,59.9,39.6,30.14,East,88,0.0,8.0,47,0.00,,,0.00,Weather View 32 v70,2013-08-13 00:50:00,
2013-08-12 18:55:00,59.5,39.2,30.14,East,88,0.0,8.0,47,0.00,,,0.00,Weather View 32 v70,2013-08-13 00:55:00,
2013-08-12 19:00:00,59.4,39.6,30.14,East,101,0.0,8.0,48,0.00,,,0.00,Weather View 32 v70,2013-08-13 01:00:00,
2013-08-12 19:05:00,59.2,41.0,30.14,SW,230,0.0,8.0,51,0.00,,,0.00,Weather View 32 v70,2013-08-13 01:05:00,
2013-08-12 19:10:00,59.0,41.4,30.14,SW,230,0.0,8.0,52,0.00,,,0.00,Weather View 32 v70,2013-08-13 01:10:00,
2013-08-12 19:15:00,59.0,41.4,30.14,SW,230,0.0,8.0,52,0.00,,,0.00,Weather View 32 v70,2013-08-13 01:15:00,
2013-08-12 19:20:00,59.2,42.5,30.14,SW,230,0.0,8.0,54,0.00,,,0.00,Weather View 32 v70,2013-08-13 01:20:00,
2013-08-12 19:25:00,59.2,43.9,30.14,SW,230,0.0,6.0,57,0.00,,,0.00,Weather View 32 v70,2013-08-13 01:25:00,
2013-08-12 19:30:00,59.2,45.3,30.14,West,259,0.0,5.0,60,0.00,,,0.00,Weather View 32 v70,2013-08-13 01:30:00,
2013-08-12 19:35:00,59.2,46.1,30.14,WSW,247,0.0,3.0,62,0.00,,,0.00,Weather View 32 v70,2013-08-13 01:35:00,
2013-08-12 19:40:00,59.2,46.1,30.14,WSW,251,0.0,0.0,62,0.00,,,0.00,Weather View 32 v70,2013-08-13 01:40:00,
2013-08-12 19:45:00,59.0,46.0,30.14,WNW,303,0.0,0.0,62,0.00,,,0.00,Weather View 32 v70,2013-08-13 01:45:00,
2013-08-12 19:50:00,58.8,46.2,30.17,WNW,303,0.0,0.0,63,0.00,,,0.00,Weather View 32 v70,2013-08-13 01:50:00,
2013-08-12 19:55:00,58.6,46.1,30.17,WNW,303,0.0,0.0,63,0.00,,,0.00,Weather View 32 v70,2013-08-13 01:55:00,
2013-08-12 20:00:00,58.3,45.7,30.17,WNW,303,0.0,0.0,63,0.00,,,0.00,Weather View 32 v70,2013-08-13 02:00:00,
2013-08-12 20:05:00,58.1,46.0,30.17,WNW,303,0.0,0.0,64,0.00,,,0.00,Weather View 32 v70,2013-08-13 02:05:00,
2013-08-12 20:10:00,57.9,46.2,30.17,WNW,303,0.0,0.0,65,0.00,,,0.00,Weather View 32 v70,2013-08-13 02:10:00,
2013-08-12 20:15:00,58.1,46.4,30.17,West,264,0.0,0.0,65,0.00,,,0.00,Weather View 32 v70,2013-08-13 02:15:00,
2013-08-12 20:20:00,57.9,46.6,30.17,SW,217,0.0,0.0,66,0.00,,,0.00,Weather View 32 v70,2013-08-13 02:20:00,
2013-08-12 20:25:00,57.6,45.9,30.17,WSW,240,0.0,0.0,65,0.00,,,0.00,Weather View 32 v70,2013-08-13 02:25:00,
2013-08-12 20:30:00,57.4,46.1,30.17,WSW,240,0.0,0.0,66,0.00,,,0.00,Weather View 32 v70,2013-08-13 02:30:00,
2013-08-12 20:35:00,57.2,45.9,30.17,WSW,240,0.0,0.0,66,0.00,,,0.00,Weather View 32 v70,2013-08-13 02:35:00,
2013-08-12 20:40:00,57.2,46.7,30.17,NE,45,6.0,6.0,68,0.00,,,0.00,Weather View 32 v70,2013-08-13 02:40:00,
2013-08-12 20:45:00,56.7,46.6,30.17,East,100,4.0,8.0,69,0.00,,,0.00,Weather View 32 v70,2013-08-13 02:45:00,
2013-08-12 20:50:00,55.9,47.4,30.20,SSW,199,0.0,8.0,73,0.00,,,0.00,Weather View 32 v70,2013-08-13 02:50:00,
2013-08-12 20:55:00,54.7,48.6,30.20,NNE,26,0.0,8.0,80,0.00,,,0.00,Weather View 32 v70,2013-08-13 02:55:00,
2013-08-12 21:00:00,54.1,49.7,30.20,SE,137,0.0,8.0,85,0.00,,,0.00,Weather View 32 v70,2013-08-13 03:00:00,
2013-08-12 21:05:00,53.1,49.3,30.20,WNW,288,0.0,8.0,87,0.00,,,0.00,Weather View 32 v70,2013-08-13 03:05:00,
2013-08-12 21:10:00,52.9,50.3,30.20,SSW,213,0.0,8.0,91,0.00,,,0.00,Weather View 32 v70,2013-08-13 03:10:00,
2013-08-12 21:15:00,52.3,50.1,30.20,ESE,107,0.0,8.0,92,0.00,,,0.00,Weather View 32 v70,2013-08-13 03:15:00,
2013-08-12 21:20:00,52.3,50.7,30.20,West,261,0.0,8.0,94,0.04,,,0.04,Weather View 32 v70,2013-08-13 03:20:00,
2013-08-12 21:25:00,52.2,50.8,30.20,NNW,328,0.0,8.0,95,0.04,,,0.04,Weather View 32 v70,2013-08-13 03:25:00,
2013-08-12 21:30:00,52.2,51.1,30.20,ENE,57,0.0,8.0,96,0.04,,,0.04,Weather View 32 v70,2013-08-13 03:30:00,
2013-08-12 21:35:00,52.0,51.2,30.20,ENE,57,0.0,8.0,97,0.08,,,0.08,Weather View 32 v70,2013-08-13 03:35:00,
2013-08-12 21:40:00,51.8,51.0,30.20,ENE,71,0.0,8.0,97,0.08,,,0.08,Weather View 32 v70,2013-08-13 03:40:00,
2013-08-12 21:45:00,51.8,51.3,30.20,North,0,0.0,8.0,98,0.12,,,0.12,Weather View 32 v70,2013-08-13 03:45:00,
2013-08-12 21:53:00,51.6,51.1,30.20,North,0,0.0,8.0,98,0.12,,,0.12,Weather View 32 v70,2013-08-13 03:53:00,
2013-08-12 21:58:00,51.6,51.1,30.20,North,0,0.0,8.0,98,0.12,,,0.12,Weather View 32 v70,2013-08-13 03:58:00,
2013-08-12 22:01:00,51.6,51.1,30.20,North,0,0.0,8.0,98,0.12,,,0.12,Weather View 32 v70,2013-08-13 04:01:00,
2013-08-12 22:06:00,51.6,51.1,30.20,North,0,0.0,5.0,98,0.20,,,0.20,Weather View 32 v70,2013-08-13 04:06:00,
2013-08-12 22:11:00,51.4,50.9,30.20,North,0,0.0,0.0,98,0.20,,,0.20,Weather View 32 v70,2013-08-13 04:11:00,
2013-08-12 22:16:00,51.4,50.9,30.20,North,0,0.0,0.0,98,0.24,,,0.24,Weather View 32 v70,2013-08-13 04:16:00,
2013-08-12 22:21:00,51.4,50.9,30.20,North,0,0.0,0.0,98,0.20,,,0.24,Weather View 32 v70,2013-08-13 04:21:00,
2013-08-12 22:26:00,51.4,50.9,30.20,ESE,118,0.0,0.0,98,0.24,,,0.31,Weather View 32 v70,2013-08-13 04:26:00,
2013-08-12 22:31:00,51.4,50.9,30.20,ESE,118,0.0,0.0,98,0.28,,,0.31,Weather View 32 v70,2013-08-13 04:31:00,
2013-08-12 22:36:00,50.5,50.0,30.20,North,0,0.0,0.0,98,0.24,,,0.31,Weather View 32 v70,2013-08-13 04:36:00,
2013-08-12 22:41:00,50.5,48.3,30.20,West,260,3.0,3.0,92,0.28,,,0.35,Weather View 32 v70,2013-08-13 04:41:00,
2013-08-12 22:46:00,50.4,48.1,30.20,North,0,0.0,3.0,92,0.24,,,0.35,Weather View 32 v70,2013-08-13 04:46:00,
2013-08-12 22:51:00,50.0,48.3,30.23,WSW,253,0.0,3.0,94,0.24,,,0.39,Weather View 32 v70,2013-08-13 04:51:00,
2013-08-12 22:56:00,50.0,48.6,30.23,NW,307,0.0,3.0,95,0.28,,,0.39,Weather View 32 v70,2013-08-13 04:56:00,
2013-08-12 23:01:00,49.6,48.5,30.23,NW,307,0.0,3.0,96,0.28,,,0.39,Weather View 32 v70,2013-08-13 05:01:00,
2013-08-12 23:06:00,49.5,48.6,30.23,North,0,0.0,3.0,97,0.20,,,0.39,Weather View 32 v70,2013-08-13 05:06:00,
2013-08-12 23:11:00,49.3,48.5,30.23,SSW,209,0.0,3.0,97,0.20,,,0.39,Weather View 32 v70,2013-08-13 05:11:00,
2013-08-12 23:16:00,49.5,48.9,30.23,SSW,209,0.0,3.0,98,0.16,,,0.39,Weather View 32 v70,2013-08-13 05:16:00,
2013-08-12 23:21:00,49.3,48.7,30.20,SSW,209,0.0,3.0,98,0.16,,,0.39,Weather View 32 v70,2013-08-13 05:21:00,
2013-08-12 23:26:00,49.3,48.7,30.20,WSW,251,0.0,3.0,98,0.16,,,0.43,Weather View 32 v70,2013-08-13 05:26:00,
2013-08-12 23:31:00,49.1,48.6,30.20,SE,144,0.0,5.0,98,0.12,,,0.43,Weather View 32 v70,2013-08-13 05:31:00,
2013-08-12 23:36:00,48.9,48.4,30.23,SE,144,0.0,5.0,98,0.12,,,0.43,Weather View 32 v70,2013-08-13 05:36:00,
2013-08-12 23:41:00,48.9,48.4,30.23,SSW,207,0.0,5.0,98,0.08,,,0.43,Weather View 32 v70,2013-08-13 05:41:00,
2013-08-12 23:46:00,48.9,48.4,30.23,SW,222,0.0,5.0,98,0.12,,,0.47,Weather View 32 v70,2013-08-13 05:46:00,
2013-08-12 23:51:00,48.9,48.4,30.20,WSW,243,0.0,5.0,98,0.12,,,0.47,Weather View 32 v70,2013-08-13 05:51:00,
2013-08-12 23:56:00,48.9,48.4,30.20,SW,232,0.0,5.0,98,0.08,,,0.47,Weather View 32 v70,2013-08-13 05:56:00,